{"data":{"norad_id":53254,"epoch":"2026-05-24T16:25:20.514144Z","epoch_age_seconds":102255,"freshness":"FRESH","line1":"1 53254U 22086N   26144.68426521  .00000188  00000+0  29910-4 0  9999","line2":"2 53254  53.2133 212.9768 0001220  72.8714 287.2412 15.08830748212552","mean_motion":15.08830748,"eccentricity":0.000122,"inclination_deg":53.2133,"raan_deg":212.9768,"arg_perigee_deg":72.8714,"mean_anomaly_deg":287.2412,"bstar":2.991e-5,"rev_number":21255,"period_min":95.438139891354,"perigee_km":538.9276839137,"apogee_km":540.61565362888,"semimajor_km":6917.9086687713,"source":"CELESTRAK","updated_at":"2026-05-25T13:38:17.362443Z"}}